#timestamp,LO_Frequency,Hit,StdDev 
1677898815.2,286046999.8,N
1677898835.0,286047000.5,N
1677898835.9,286047000.5,N
1677898855.1,286047001.2,N
1677898856.0,286047001.2,N
1677898875.8,286046998.4,N
1677898895.7,286046998.5,N
1677898915.5,286046999.2,N
1677898935.4,286046996.7,N
1677898955.2,286046997.1,N
1677898975.0,286046999.5,N
1677898975.9,286046999.5,N
1677898995.8,286046999.6,N
1677899015.6,286046999.0,N
1677899035.5,286046998.4,N
1677899055.3,286046999.5,N
1677899075.2,286046997.1,N
1677899095.9,286046996.9,N
1677899115.7,286046997.2,N
1677899135.6,286046998.7,N
1677899155.4,286046997.2,N
1677899175.3,286046997.1,N
1677899195.1,286046999.2,N
1677899196.0,286046999.2,N
1677899215.8,286046998.6,N
1677899235.7,286047001.2,N
1677899255.5,286047000.5,N
1677899275.3,286046998.1,N
1677899295.2,286046998.5,N
1677899315.0,286046998.5,N
1677899315.9,286046998.5,N
1677899335.8,286046998.3,N
1677899355.6,286046998.2,N
1677899375.4,286046998.5,N
1677899395.3,286046999.0,N
1677899415.1,286046998.1,N
1677899435.9,286046999.0,N
1677899455.7,286046996.9,N
1677899475.5,286046998.4,N
1677899495.4,286047000.6,N
1677899515.2,286047000.8,N
1677899535.0,286046999.5,N
1677899535.9,286046999.5,N
1677899555.8,286046998.2,N
1677899575.6,286046998.2,N
1677899595.5,286047001.1,N
1677899615.3,286047002.1,N
1677899635.1,286047001.7,N
1677899655.9,286046999.9,N
1677899675.7,286047000.9,N
1677899695.5,286047001.1,N
1677899715.4,286047000.9,N
1677899735.2,286047000.8,N
1677899755.1,286046998.8,N
1677899756.0,286046998.8,N
1677899775.8,286047000.9,N
1677899795.6,286047001.2,N
1677899815.5,286046999.5,N
1677899835.3,286046999.6,N
1677899855.1,286046997.3,N
1677899875.9,286046994.9,Y
1677899895.7,286046996.9,P
1677899915.6,286046997.9,N
1677899935.4,286046997.3,N
1677899955.2,286046996.7,Y
1677899975.1,286047001.8,P
1677899976.0,286047001.8,N
1677899995.8,286047002.8,N
1677900015.7,286047002.5,N
1677900035.8,286047000.7,N
1677900055.6,286047000.9,N
1677900075.5,286047000.6,N
1677900095.3,286046998.1,N
1677900115.1,286046998.6,N
1677900135.9,286046998.7,N
1677900155.7,286046998.2,N
1677900175.6,286046998.8,N
1677900195.4,286046999.1,N
1677900215.2,286046996.5,N
1677900235.1,286046997.2,N
1677900236.0,286046997.2,N
1677900255.8,286046999.7,N
1677900275.6,286046999.7,N
1677900295.5,286047000.8,N
1677900315.3,286046998.5,N
1677900335.2,286047001.2,N
1677900355.9,286047000.5,N
1677900375.7,286047000.5,N
1677900395.9,286047002.8,N
1677900415.7,286047003.9,N
1677900435.6,286047003.3,N
1677900455.4,286047005.7,N
1677900475.2,286047004.0,N
1677900495.1,286047001.3,N
1677900496.0,286047001.3,N
1677900515.8,286047002.7,N
1677900535.7,286046998.5,N
1677900555.5,286047000.7,N
1677900575.3,286046998.8,N
1677900595.2,286047001.2,N
1677900615.0,286047001.2,N
1677900615.9,286047001.2,N
1677900635.8,286047001.1,N
1677900655.6,286046998.2,N
1677900675.4,286047000.8,N
1677900695.3,286047004.0,N
1677900715.1,286047002.4,N
1677900735.8,286047002.7,N
1677900755.7,286047001.6,N
1677900775.5,286047003.9,N
1677900795.4,286047004.3,N
1677900815.2,286047001.8,N
1677900835.0,286047002.0,N
1677900835.9,286047002.0,N
1677900855.8,286047001.9,N
1677900875.6,286047002.8,N
1677900895.4,286047006.0,Y
1677900915.3,286046999.7,P
1677900935.1,286047000.7,N
1677900955.9,286046998.4,N
1677900975.7,286046998.4,N
1677900995.5,286047000.1,N
1677901015.4,286047001.0,N
1677901035.2,286046998.4,N
1677901055.0,286046998.4,N
1677901055.9,286046998.4,N
1677901075.8,286046998.7,N
1677901095.6,286046998.5,N
1677901115.5,286047000.5,N
1677901135.3,286046998.9,N
1677901155.1,286047001.1,N
1677901175.9,286047002.3,N
1677901195.7,286046998.1,N
1677901215.5,286046998.2,N
1677901235.4,286047000.5,N
1677901255.2,286047001.9,N
1677901275.1,286047000.9,N
1677901276.0,286047000.9,N
1677901295.8,286046998.4,N
1677901315.6,286046999.0,N
1677901335.5,286046998.9,N
1677901355.3,286047000.8,N
1677901375.1,286047002.2,N
1677901395.9,286047003.5,N
1677901415.7,286047001.8,N
1677901435.6,286046999.7,N
1677901455.4,286047002.4,N
1677901475.2,286047002.8,N
1677901495.1,286047002.7,N
1677901496.0,286047002.7,N
1677901515.8,286047002.4,N
1677901535.7,286047002.7,N
1677901555.5,286047002.3,N
1677901575.3,286047001.7,N
1677901595.2,286047001.8,N
1677901615.0,286047001.7,N
1677901615.9,286047001.7,N
1677901635.7,286047002.0,N
1677901655.6,286047001.9,N
1677901675.4,286047005.8,Y
1677901695.3,286047003.2,P
1677901715.1,286047002.6,N
1677901716.0,286047002.6,P
1677901735.8,286047000.4,N
1677901755.7,286047000.7,N
1677901775.5,286047000.0,N
1677901795.3,286047002.1,N
1677901815.2,286046999.8,N
1677901835.0,286047000.8,N
1677901835.9,286047000.8,N
1677901855.8,286047000.1,N
1677901875.6,286047000.5,N
1677901895.4,286047001.1,N
1677901915.3,286047002.4,N
1677901935.1,286047000.4,N
1677901955.9,286047002.6,N
1677901975.7,286046999.8,N
1677901995.5,286046998.5,N
1677902015.4,286047000.7,N
1677902035.2,286047000.5,N
1677902055.0,286047000.4,N
1677902055.9,286047000.4,N
1677902075.8,286047001.0,N
1677902095.6,286046998.2,N
1677902115.5,286047000.6,N
1677902135.3,286047000.0,N
1677902155.1,286047002.4,N
1677902175.9,286047002.7,N
1677902195.7,286047000.1,N
1677902215.5,286047000.9,N
1677902235.4,286047002.5,N
1677902255.2,286047000.9,N
1677902275.1,286047002.6,N
1677902276.0,286047002.6,N
1677902295.8,286047002.7,N
1677902315.6,286046999.3,N
1677902335.5,286046998.9,N
1677902355.3,286046999.5,N
1677902375.1,286046998.1,N
1677902395.9,286047001.0,N
